Location: High Meadows Obseravatory
(40.7417°N, 111.5713°W)
Time: 20:15:39
(UTC-06:00)

Envisat - Pass Details

Date: 13 August 2022
Orbit: 763 x 765 km, 98.2° (Epoch: 30 September)

Event Time Altitude Azimuth Distance (km) Brightness Sun altitude
Rises 04:43:56 0° 30° (NNE) 3,235 7.5 -18.9°
Reaches altitude 10° 04:46:57 10° 48° (NE) 2,303 6.8 -18.5°
Maximum altitude 04:50:26 19° 92° (E) 1,780 5.5 -18.0°
Drops below altitude 10° 04:53:55 10° 136° (SE) 2,291 5.5 -17.5°
Sets 04:56:53 0° 154° (SSE) 3,211 6.1 -17.0°
